Regional Weather Roundup
Issued by NWS Goodland, KS

Home | Current Version | Previous Version | Graphics & Text | Print | Product List | Glossary On
Versions: 1 2 3 4 5 6 7 8 9 10 11 12 13 14 15 16 17 18 19 20 21 22 23 24 25 26 27 28 29 30 31 32 33 34 35 36 37 38 39 40 41 42 43 44 45 46 47 48 49 50
000
ASUS43 KGLD 300908
RWRGLD

GOODLAND FORECAST AREA HOURLY WEATHER ROUNDUP
NATIONAL WEATHER SERVICE GOODLAND KS
300 AM MDT MON MAY 30 2016

...OFFICIAL OBSERVATIONS...

CITY           SKY/WX    TMP DP  RH WIND       PRES   REMARKS
GOODLAND KS    PTCLDY    57  50  77 S13       30.05F
HILL CITY KS   CLEAR     57  52  83 S5        30.01F
IMPERIAL NEB   PTCLDY    59  51  75 SW10      30.02S
MCCOOK NEB     PTCLDY    60  52  74 S10       29.96F
AKRON CO       CLOUDY    52  47  83 SE12      30.07S
BURLINGTON CO    N/A     52  48  86 S13       30.08F
LIMON CO       CLEAR     42  42 100 N3        30.11F
$$

...UNOFFICIAL OBSERVATIONS...

CITY           SKY/WX    TMP DP  RH WIND       PRES   REMARKS
GOVE KS          N/A     68  32  26 MISG        N/A
LENORA KS        N/A     57  32  39 MISG        N/A
SHARON SPRINGS   N/A     52  49  90 SE7         N/A
TRIBUNE KS     CLEAR     52  50  93 N6        30.10
KIT CARSON CO    N/A     51  46  84 CALM        N/A
YUMA CO          N/A     52  48  87 CALM        N/A
$$



USA.gov is the U.S. government's official web portal to all federal, state and local government web resources and services.